Location: Atherton
(17.2661°S, 145.4859°E)
Time: 00:36:56
(UTC+10:00)

Vanguard 1 - Pass Details

Date: 02 July 2025
Orbit: 649 x 3822 km, 34.2° (Epoch: 17 July)

Event Time Altitude Azimuth Distance (km) Brightness Sun altitude
Rises 23:27:11 0° 237° (WSW) 5,290 - -75.9°
Reaches altitude 10° 23:31:32 10° 232° (SW) 3,773 - -76.8°
Maximum altitude 23:39:55 48° 159° (SSE) 1,297 - -78.5°
Drops below altitude 10° 23:45:01 10° 83° (E) 2,321 - -79.6°
Sets 23:47:06 0° 77° (ENE) 3,102 - -80.0°
